Wind_Speed
41 41 41 41 41 41 44 46 47 50 51 52 53 56 58 63 65 62 55 48 48 48 49 49 48 47 47 43 37 38 31 29
40 40 40 40 41 42 44 46 49 50 52 55 59 62 64 68 67 67 62 59 55 52 49 48 47 48 47 45 36 35 31 30
40 40 40 40 41 42 45 49 50 53 55 58 61 62 66 69 69 68 63 59 53 53 50 47 45 48 44 45 39 33 32 31
41 41 40 41 42 45 46 52 57 58 61 61 61 59 60 62 68 63 58 55 54 51 48 46 45 48 45 45 41 34 31 32
41 41 42 41 44 49 51 55 57 60 60 55 48 47 45 46 55 51 51 54 55 55 54 47 45 49 47 47 42 35 33 32
42 43 43 44 46 49 52 51 54 49 48 49 47 45 43 47 47 48 49 48 51 49 50 59 42 52 47 45 46 38 34 34
42 42 42 45 48 49 51 46 40 44 46 47 46 43 41 43 40 39 42 45 43 39 43 44 42 48 53 48 49 40 37 32
40 39 39 43 47 51 42 38 42 38 34 32 36 36 37 36 36 38 40 39 43 41 38 39 39 42 42 51 49 38 34 30
37 37 36 41 48 41 36 35 34 36 29 30 29 32 33 35 37 37 36 40 43 41 42 36 35 42 48 43 40 33 30 30
35 35 35 40 43 35 34 29 30 29 26 27 27 26 29 35 35 35 34 36 40 42 40 40 30 19 28 32 27 29 29 27
34 36 34 40 38 31 33 26 26 28 26 24 26 29 35 37 38 38 35 34 37 41 36 44 27 24 33 27 25 29 27 26
34 37 36 40 35 32 26 27 22 23 25 28 30 31 35 31 35 37 33 33 33 40 42 39 35 37 38 29 29 29 27 28
35 39 40 39 34 29 22 22 23 23 25 28 32 30 34 31 34 33 35 35 36 41 42 39 44 41 30 29 26 26 27 28
36 37 39 36 35 30 24 23 25 29 24 24 29 32 34 31 34 35 35 37 37 40 40 40 45 30 31 28 26 27 28 29
40 38 40 35 35 29 28 26 18 24 26 29 21 27 33 25 31 29 40 35 37 38 36 33 36 33 31 30 27 29 30 32
41 37 37 32 32 29 26 26 18 24 31 21 20 32 34 25 28 23 37 36 36 36 36 34 34 33 34 31 26 29 32 33
42 36 34 31 28 26 22 21 21 18 18 20 18 24 35 35 33 34 36 41 41 41 40 40 40 38 35 33 28 28 33 33
33 26 29 29 25 24 21 18 17 17 19 18 23 18 27 27 20 21 23 33 33 37 36 39 40 42 40 35 28 28 32 34
24 25 26 23 20 15 12 14 14 15 17 20 23 21 16 18 21 27 33 26 31 37 40 42 45 44 42 36 32 30 31 31
Wind_Direction
271 268 266 266 264 262 263 264 263 266 268 266 264 261 261 263 263 264 261 257 262 263 261 260 265 259 260 258 255 257 257 258
268 267 266 265 266 268 269 270 269 267 265 265 265 266 264 263 260 262 261 259 261 264 258 256 261 255 253 253 252 255 252 256
266 265 265 266 266 266 268 273 274 273 272 271 267 262 255 255 257 257 257 259 261 258 261 256 254 246 244 249 250 250 250 254
265 267 268 269 272 273 275 278 278 277 275 271 267 260 257 254 254 256 254 253 252 257 256 252 243 238 237 242 247 247 246 252
264 266 269 274 276 279 281 280 283 280 274 270 262 256 252 250 254 250 245 250 251 256 251 250 243 235 232 238 239 240 243 251
265 268 272 274 278 281 284 288 286 278 272 263 255 251 248 247 248 246 241 242 248 250 249 242 228 243 226 236 243 236 242 249
265 270 276 280 283 286 289 291 280 278 268 261 252 244 240 241 246 247 243 243 241 239 233 244 239 242 238 227 237 236 242 245
269 273 279 286 289 294 285 281 280 272 271 259 250 242 239 240 241 236 239 232 233 229 242 245 247 244 241 227 236 234 240 245
270 275 282 288 295 289 286 278 268 274 270 253 242 231 226 229 228 231 230 231 229 232 235 239 241 249 241 231 227 234 239 241
274 278 284 293 297 286 289 270 274 271 264 243 237 226 225 224 223 233 235 233 219 222 226 224 228 218 204 212 224 237 238 241
271 275 284 293 294 288 289 266 278 265 258 240 230 227 220 222 221 225 229 228 223 224 233 227 221 208 225 218 229 235 237 240
271 276 283 290 287 286 286 275 278 258 243 235 231 233 221 231 238 228 226 232 235 229 224 220 234 232 214 216 228 232 235 236
269 272 279 287 282 279 277 263 261 253 244 251 232 233 230 238 232 230 231 233 236 228 227 230 232 220 218 221 231 236 239 239
269 272 276 279 276 275 276 268 255 250 252 259 238 229 229 239 229 229 228 232 233 232 232 240 237 220 221 222 233 236 240 242
271 274 275 270 269 266 267 257 232 240 255 248 250 240 230 239 234 233 229 229 228 231 237 237 235 225 219 226 235 235 239 243
274 275 268 262 265 258 262 260 260 243 240 252 235 222 227 213 233 232 231 231 222 231 234 240 227 221 224 229 235 241 243 246
271 266 257 250 253 251 255 263 248 247 223 239 243 247 231 226 235 235 234 234 232 231 235 241 242 230 229 232 234 241 245 247
255 245 242 241 245 242 247 259 243 248 246 244 235 238 225 218 237 232 244 238 239 240 234 235 231 227 228 231 233 243 244 244
231 232 226 235 233 229 239 253 244 239 239 246 230 219 221 216 239 233 222 226 239 216 232 226 225 226 229 231 234 239 243 245
Height
5706 5706 5706 5707 5709 5710 5711 5712 5713 5712 5713 5714 5715 5717 5719 5718 5721 5725 5729 5732 5737 5737 5740 5742 5742 5745 5745 5747 5750 5754 5754 5754
5695 5696 5696 5698 5699 5700 5700 5699 5699 5701 5702 5702 5700 5700 5702 5704 5707 5711 5715 5720 5724 5725 5729 5731 5732 5735 5736 5738 5741 5744 5746 5746
5685 5686 5687 5688 5688 5689 5689 5686 5686 5685 5686 5685 5684 5684 5686 5688 5689 5691 5700 5706 5711 5712 5717 5719 5722 5723 5726 5729 5732 5735 5737 5737
5675 5676 5677 5677 5677 5676 5677 5673 5671 5670 5667 5666 5664 5663 5665 5671 5675 5679 5686 5692 5697 5703 5704 5707 5709 5711 5715 5719 5722 5726 5728 5729
5666 5666 5666 5666 5665 5664 5663 5660 5654 5649 5647 5645 5646 5648 5651 5656 5660 5667 5672 5676 5685 5689 5691 5696 5697 5700 5705 5710 5712 5716 5719 5721
5656 5656 5655 5654 5654 5652 5649 5645 5637 5631 5628 5628 5631 5635 5640 5643 5647 5653 5658 5664 5672 5675 5680 5676 5672 5690 5695 5703 5706 5706 5709 5711
5646 5646 5645 5644 5641 5638 5634 5627 5622 5620 5616 5614 5617 5622 5627 5632 5638 5642 5647 5653 5659 5664 5667 5667 5672 5682 5687 5691 5697 5700 5701 5702
5636 5637 5635 5633 5629 5624 5618 5614 5610 5609 5605 5603 5606 5611 5617 5622 5628 5632 5637 5643 5647 5653 5657 5661 5666 5671 5676 5681 5689 5691 5693 5694
5626 5626 5625 5622 5618 5612 5608 5604 5602 5599 5597 5596 5597 5602 5607 5613 5618 5623 5629 5633 5640 5644 5648 5654 5657 5660 5664 5673 5680 5683 5684 5687
5615 5615 5614 5612 5607 5602 5600 5595 5594 5590 5589 5589 5592 5595 5599 5605 5611 5614 5620 5624 5629 5633 5639 5644 5647 5651 5657 5664 5669 5674 5677 5679
5606 5605 5604 5602 5598 5594 5591 5589 5586 5584 5583 5583 5587 5589 5593 5598 5602 5608 5612 5617 5623 5629 5632 5634 5639 5644 5652 5655 5660 5666 5668 5671
5597 5596 5595 5593 5590 5587 5584 5581 5579 5578 5578 5578 5580 5583 5587 5592 5596 5601 5605 5611 5617 5622 5623 5629 5635 5640 5645 5648 5655 5658 5660 5663
5589 5588 5586 5584 5581 5579 5577 5576 5573 5573 5573 5574 5574 5578 5582 5585 5588 5592 5598 5603 5608 5614 5619 5625 5629 5635 5637 5642 5646 5650 5653 5656
5579 5578 5577 5576 5574 5573 5572 5570 5568 5567 5568 5568 5569 5572 5575 5579 5582 5585 5590 5595 5600 5605 5611 5617 5624 5625 5630 5634 5638 5642 5645 5648
5567 5568 5568 5568 5567 5566 5566 5563 5560 5560 5561 5563 5565 5567 5571 5574 5578 5578 5583 5588 5592 5597 5602 5609 5615 5619 5623 5629 5631 5635 5638 5641
5557 5559 5559 5560 5560 5560 5559 5556 5554 5554 5554 5556 5559 5563 5566 5561 5572 5574 5579 5583 5588 5593 5597 5603 5607 5611 5618 5621 5623 5627 5631 5634
5546 5549 5551 5552 5553 5553 5552 5550 5549 5548 5550 5549 5551 5554 5557 5562 5566 5569 5573 5576 5580 5585 5590 5594 5601 5605 5610 5612 5615 5619 5622 5626
5536 5540 5542 5545 5546 5546 5546 5544 5543 5543 5544 5545 5548 5550 5552 5557 5560 5562 5564 5567 5573 5578 5582 5586 5592 5596 5601 5605 5608 5611 5614 5617
5529 5533 5536 5539 5539 5539 5539 5539 5538 5538 5540 5541 5542 5545 5546 5550 5552 5554 5557 5560 5561 5567 5572 5575 5582 5587 5592 5596 5600 5604 5606 5609